QPF
0.00 0.00 0.00 0.00 0.00 0.01 0.00 0.01 0.02 0.02 0.03 0.08 0.05 0.05 0.05 0.03 0.01 0.01 0.00 0.00 0.00 0.00 0.00 0.00 0.00 0.00 0.00 0.00 0.00 0.00 0.00 0.00 0.00 0.00 0.00 0.00 0.00 0.00
0.02 0.01 0.01 0.01 0.02 0.01 0.00 0.02 0.06 0.07 0.03 0.02 0.06 0.07 0.08 0.05 0.05 0.05 0.02 0.01 0.00 0.00 0.00 0.00 0.00 0.00 0.00 0.00 0.00 0.01 0.00 0.00 0.00 0.00 0.00 0.00 0.00 0.00
0.03 0.02 0.02 0.03 0.06 0.09 0.08 0.08 0.06 0.04 0.01 0.00 0.02 0.03 0.03 0.04 0.05 0.08 0.07 0.04 0.00 0.00 0.00 0.00 0.00 0.00 0.00 0.00 0.00 0.00 0.01 0.01 0.00 0.00 0.00 0.00 0.00 0.00
0.07 0.06 0.07 0.04 0.06 0.11 0.11 0.08 0.07 0.03 0.00 0.00 0.01 0.03 0.04 0.05 0.04 0.03 0.03 0.02 0.01 0.00 0.00 0.00 0.00 0.00 0.00 0.00 0.00 0.00 0.00 0.01 0.01 0.00 0.00 0.00 0.00 0.00
0.11 0.09 0.06 0.05 0.05 0.07 0.07 0.07 0.07 0.05 0.03 0.01 0.00 0.02 0.01 0.01 0.00 0.01 0.02 0.02 0.01 0.00 0.00 0.00 0.00 0.00 0.00 0.00 0.00 0.00 0.00 0.00 0.01 0.02 0.01 0.00 0.00 0.00
0.02 0.02 0.03 0.02 0.03 0.03 0.03 0.03 0.04 0.04 0.04 0.04 0.02 0.02 0.01 0.01 0.01 0.01 0.01 0.01 0.01 0.01 0.01 0.00 0.00 0.00 0.00 0.00 0.00 0.00 0.00 0.00 0.00 0.00 0.01 0.01 0.00 0.00
0.00 0.00 0.00 0.00 0.00 0.01 0.01 0.01 0.01 0.01 0.02 0.03 0.03 0.03 0.02 0.02 0.01 0.02 0.01 0.01 0.01 0.01 0.00 0.00 0.00 0.00 0.00 0.00 0.00 0.00 0.00 0.00 0.00 0.00 0.00 0.00 0.00 0.00
0.00 0.00 0.00 0.00 0.00 0.00 0.00 0.00 0.00 0.00 0.00 0.00 0.01 0.01 0.01 0.01 0.00 0.01 0.01 0.01 0.00 0.00 0.00 0.00 0.00 0.00 0.00 0.00 0.00 0.00 0.00 0.00 0.00 0.00 0.00 0.00 0.00 0.00
0.00 0.00 0.00 0.00 0.00 0.00 0.00 0.00 0.00 0.00 0.00 0.00 0.00 0.00 0.00 0.00 0.00 0.00 0.00 0.00 0.00 0.00 0.00 0.00 0.00 0.00 0.00 0.00 0.00 0.00 0.00 0.00 0.00 0.00 0.00 0.00 0.00 0.00
0.00 0.00 0.00 0.00 0.00 0.00 0.00 0.00 0.00 0.00 0.00 0.00 0.00 0.00 0.00 0.00 0.00 0.00 0.00 0.00 0.00 0.00 0.00 0.00 0.00 0.00 0.00 0.00 0.00 0.00 0.00 0.00 0.00 0.00 0.00 0.00 0.00 0.00
0.00 0.00 0.00 0.00 0.00 0.00 0.00 0.00 0.00 0.00 0.00 0.00 0.00 0.00 0.00 0.00 0.00 0.00 0.00 0.00 0.00 0.00 0.00 0.00 0.00 0.00 0.00 0.00 0.00 0.00 0.00 0.00 0.00 0.00 0.00 0.00 0.00 0.00
0.00 0.00 0.00 0.00 0.00 0.00 0.00 0.00 0.00 0.00 0.00 0.00 0.00 0.00 0.00 0.00 0.00 0.00 0.00 0.00 0.00 0.00 0.00 0.00 0.00 0.00 0.00 0.00 0.00 0.00 0.00 0.00 0.00 0.00 0.00 0.00 0.00 0.00
0.00 0.00 0.00 0.00 0.00 0.00 0.00 0.00 0.00 0.00 0.00 0.00 0.00 0.00 0.00 0.00 0.00 0.00 0.00 0.00 0.00 0.00 0.00 0.00 0.00 0.00 0.00 0.00 0.00 0.00 0.00 0.00 0.00 0.00 0.00 0.00 0.00 0.00
0.00 0.00 0.00 0.00 0.00 0.00 0.00 0.00 0.00 0.00 0.00 0.00 0.00 0.00 0.00 0.00 0.00 0.00 0.00 0.00 0.00 0.00 0.00 0.00 0.00 0.00 0.00 0.00 0.00 0.00 0.00 0.00 0.00 0.00 0.00 0.00 0.00 0.00
0.00 0.00 0.00 0.00 0.00 0.00 0.00 0.00 0.00 0.00 0.00 0.00 0.00 0.00 0.00 0.00 0.00 0.00 0.00 0.00 0.00 0.00 0.00 0.00 0.00 0.00 0.00 0.00 0.00 0.00 0.00 0.00 0.00 0.00 0.00 0.00 0.00 0.00
0.00 0.00 0.00 0.00 0.00 0.00 0.00 0.00 0.00 0.00 0.00 0.00 0.00 0.00 0.00 0.00 0.00 0.00 0.00 0.00 0.00 0.00 0.00 0.00 0.00 0.00 0.00 0.00 0.00 0.00 0.00 0.00 0.00 0.00 0.00 0.00 0.00 0.00
0.00 0.00 0.00 0.00 0.00 0.00 0.00 0.00 0.00 0.00 0.00 0.00 0.00 0.00 0.00 0.00 0.00 0.00 0.00 0.00 0.00 0.00 0.00 0.00 0.00 0.00 0.00 0.00 0.00 0.00 0.00 0.00 0.00 0.00 0.00 0.00 0.00 0.00
0.00 0.00 0.00 0.00 0.00 0.00 0.00 0.00 0.00 0.00 0.00 0.00 0.00 0.00 0.00 0.00 0.00 0.00 0.00 0.00 0.00 0.00 0.00 0.00 0.00 0.00 0.00 0.00 0.00 0.00 0.00 0.00 0.00 0.00 0.00 0.00 0.00 0.00
0.00 0.00 0.00 0.00 0.00 0.00 0.00 0.00 0.00 0.00 0.00 0.00 0.00 0.00 0.00 0.00 0.00 0.00 0.00 0.00 0.00 0.00 0.00 0.00 0.00 0.00 0.00 0.00 0.00 0.00 0.00 0.00 0.00 0.00 0.00 0.00 0.00 0.00
0.00 0.00 0.00 0.00 0.00 0.00 0.00 0.00 0.00 0.00 0.00 0.00 0.00 0.00 0.00 0.00 0.00 0.00 0.00 0.00 0.00 0.00 0.00 0.00 0.00 0.00 0.00 0.00 0.00 0.00 0.00 0.00 0.00 0.00 0.00 0.00 0.00 0.00
0.00 0.00 0.00 0.00 0.00 0.00 0.00 0.00 0.00 0.00 0.00 0.00 0.00 0.00 0.00 0.00 0.00 0.00 0.00 0.00 0.00 0.00 0.00 0.00 0.00 0.00 0.00 0.00 0.00 0.00 0.00 0.00 0.00 0.00 0.00 0.00 0.00 0.00
0.00 0.00 0.00 0.00 0.00 0.00 0.00 0.00 0.00 0.00 0.00 0.00 0.00 0.00 0.00 0.00 0.00 0.00 0.00 0.00 0.00 0.00 0.00 0.00 0.00 0.00 0.00 0.00 0.00 0.00 0.00 0.00 0.00 0.00 0.00 0.00 0.00 0.00
0.00 0.00 0.00 0.00 0.00 0.00 0.00 0.00 0.00 0.00 0.00 0.00 0.00 0.00 0.00 0.00 0.00 0.00 0.00 0.00 0.00 0.00 0.00 0.00 0.00 0.00 0.00 0.00 0.00 0.00 0.00 0.00 0.00 0.00 0.00 0.00 0.00 0.00
MSLP
1005.99 1006.77 1007.21 1007.63 1008.10 1008.65 1009.17 1009.71 1010.39 1011.12 1011.24 1011.01 1011.05 1010.22 1010.65 1011.04 1010.91 1011.17 1011.48 1011.47 1012.01 1012.45 1012.92 1013.16 1013.53 1013.85 1014.19 1014.43 1014.79 1015.13 1015.42 1015.87 1016.26 1016.67 1017.00 1017.27 1017.66 1018.10
1005.75 1006.26 1006.84 1007.35 1007.63 1008.15 1008.55 1009.12 1009.55 1010.12 1010.50 1009.99 1009.79 1009.23 1009.74 1010.45 1010.66 1010.89 1010.74 1010.77 1011.02 1011.49 1011.96 1012.32 1012.59 1012.94 1013.27 1013.56 1013.83 1014.12 1014.41 1014.81 1015.20 1015.54 1015.94 1016.29 1016.67 1017.10
1005.60 1005.98 1006.53 1007.04 1007.47 1007.51 1008.12 1008.60 1009.08 1009.57 1010.06 1009.42 1009.10 1008.72 1009.18 1009.49 1009.87 1010.01 1010.27 1010.41 1010.32 1010.54 1011.10 1011.55 1011.92 1012.19 1012.44 1012.70 1012.88 1013.16 1013.49 1013.72 1014.09 1014.51 1014.87 1015.26 1015.56 1016.00
1006.59 1006.53 1007.17 1007.30 1007.24 1007.67 1007.57 1008.15 1008.74 1008.76 1009.69 1009.43 1008.95 1008.33 1008.63 1009.15 1009.01 1009.27 1009.25 1009.23 1009.24 1009.43 1009.71 1010.23 1010.79 1011.27 1011.67 1011.87 1011.96 1012.02 1012.29 1012.73 1012.95 1013.27 1013.73 1014.16 1014.49 1014.80
1008.02 1008.47 1008.62 1008.53 1008.61 1008.87 1008.73 1008.46 1008.85 1008.69 1009.00 1009.02 1008.67 1008.26 1008.00 1008.32 1008.55 1008.74 1008.65 1008.61 1008.60 1008.40 1009.09 1009.43 1009.85 1010.38 1010.74 1010.90 1011.09 1011.12 1011.14 1011.32 1011.64 1012.05 1012.44 1012.84 1013.28 1013.70
1009.54 1008.98 1009.80 1010.32 1010.10 1010.24 1009.98 1009.82 1009.55 1009.21 1008.90 1008.29 1007.90 1007.73 1007.79 1007.72 1007.88 1007.91 1008.02 1007.93 1007.80 1007.93 1008.23 1008.34 1008.76 1009.34 1009.74 1009.98 1010.12 1010.20 1010.31 1010.32 1010.38 1010.72 1011.09 1011.63 1012.06 1012.36
1011.21 1011.74 1012.28 1010.57 1010.65 1011.70 1010.97 1011.05 1010.15 1009.70 1009.34 1009.08 1008.75 1008.28 1008.01 1007.84 1007.77 1007.24 1007.13 1007.08 1007.02 1007.15 1007.61 1007.97 1008.37 1008.51 1008.57 1009.07 1009.27 1009.32 1009.29 1009.33 1009.32 1009.42 1009.59 1010.24 1010.74 1011.32
1012.89 1013.11 1011.50 1011.63 1011.30 1011.66 1011.93 1011.72 1011.98 1010.98 1010.83 1010.67 1010.23 1010.05 1009.92 1010.02 1009.66 1009.26 1007.43 1006.72 1006.62 1006.58 1007.18 1007.23 1007.74 1007.95 1007.95 1008.32 1008.59 1008.48 1008.33 1008.46 1008.50 1008.44 1008.61 1008.73 1009.37 1009.96
1013.51 1013.53 1012.45 1012.71 1013.06 1012.80 1012.81 1012.40 1012.62 1012.59 1012.54 1012.15 1011.88 1011.86 1011.57 1011.76 1011.02 1010.42 1009.01 1008.55 1007.09 1007.03 1006.99 1006.88 1007.47 1007.66 1007.89 1008.15 1008.20 1008.03 1007.86 1007.86 1007.79 1007.81 1007.76 1007.66 1007.86 1008.51
1015.16 1015.24 1015.17 1015.24 1014.31 1014.25 1013.83 1013.44 1013.61 1013.72 1013.30 1013.28 1012.62 1012.60 1012.77 1012.42 1012.25 1011.23 1010.39 1009.65 1008.41 1007.55 1007.56 1007.38 1007.78 1007.68 1007.53 1007.71 1007.86 1007.78 1007.49 1007.29 1007.35 1007.18 1007.13 1006.91 1006.87 1007.23
1016.59 1015.86 1014.96 1015.09 1014.86 1015.10 1014.26 1014.29 1014.70 1014.54 1014.06 1013.64 1013.27 1012.91 1012.68 1012.68 1012.27 1011.10 1011.06 1010.28 1008.92 1008.18 1008.07 1008.00 1007.93 1008.32 1008.23 1008.05 1007.89 1007.65 1007.50 1007.29 1006.90 1006.67 1006.53 1006.46 1006.54 1006.64
1017.18 1016.75 1016.57 1016.70 1016.49 1016.16 1015.65 1015.43 1015.44 1015.29 1014.86 1014.41 1013.81 1013.54 1013.17 1012.62 1012.14 1012.17 1012.18 1011.50 1010.53 1009.09 1009.60 1009.34 1008.56 1008.39 1008.39 1008.72 1008.64 1008.30 1008.04 1007.79 1007.58 1007.02 1006.62 1006.21 1006.46 1007.26
1018.34 1017.99 1017.86 1017.71 1017.25 1016.77 1016.35 1016.13 1016.04 1015.79 1015.46 1015.25 1014.34 1014.21 1013.95 1013.48 1012.84 1012.37 1012.10 1011.77 1011.55 1010.71 1010.08 1010.31 1009.03 1008.73 1008.67 1008.80 1009.13 1009.24 1008.60 1008.71 1008.29 1008.32 1008.08 1007.64 1007.41 1007.30
1018.86 1018.56 1018.62 1018.39 1017.57 1017.17 1016.79 1016.69 1016.60 1015.94 1015.91 1015.44 1015.21 1015.08 1014.84 1014.12 1013.54 1012.91 1012.54 1012.42 1012.00 1011.55 1010.98 1010.45 1009.52 1008.91 1008.82 1009.16 1009.03 1009.38 1009.33 1009.60 1009.41 1008.81 1009.30 1008.95 1008.78 1008.74
1019.39 1019.41 1019.21 1018.92 1018.27 1018.05 1017.67 1017.40 1017.31 1017.17 1016.98 1016.67 1016.27 1015.87 1015.48 1015.08 1014.10 1013.48 1012.60 1011.89 1011.30 1011.20 1010.59 1009.97 1009.81 1009.01 1008.67 1009.09 1009.19 1009.35 1009.65 1009.87 1009.77 1009.91 1009.69 1010.40 1009.53 1010.09
1020.96 1020.47 1020.47 1020.63 1020.26 1019.84 1019.14 1018.84 1018.50 1018.17 1018.22 1017.64 1016.94 1015.92 1015.30 1014.42 1014.28 1013.68 1013.21 1012.36 1011.72 1011.18 1010.74 1010.02 1009.56 1009.44 1009.56 1009.09 1009.27 1009.75 1009.92 1010.06 1010.19 1010.30 1010.07 1010.66 1010.63 1010.62
1022.55 1022.24 1022.09 1021.53 1021.13 1020.71 1020.55 1020.23 1019.11 1018.87 1018.74 1018.12 1017.71 1016.74 1016.07 1015.18 1014.46 1013.86 1013.42 1012.99 1012.39 1012.01 1011.50 1010.57 1010.15 1010.55 1010.14 1009.71 1009.72 1009.89 1010.62 1010.71 1010.60 1010.65 1010.78 1011.02 1011.24 1011.18
1022.95 1023.55 1023.27 1022.64 1022.54 1022.52 1021.82 1021.22 1020.02 1019.92 1019.43 1018.57 1018.13 1017.61 1016.67 1015.68 1014.98 1014.19 1013.68 1013.52 1013.42 1012.61 1011.72 1011.45 1011.13 1010.98 1010.64 1010.45 1010.54 1010.63 1010.70 1011.16 1011.46 1011.09 1011.33 1011.43 1011.76 1011.77
1024.18 1023.77 1023.75 1023.94 1023.70 1023.25 1022.30 1021.50 1021.02 1020.74 1020.42 1019.87 1018.91 1017.93 1017.01 1016.44 1015.71 1015.06 1014.14 1013.71 1013.62 1012.94 1012.00 1011.62 1011.25 1011.20 1011.42 1011.66 1011.78 1011.53 1011.42 1011.32 1011.50 1011.96 1012.16 1012.04 1011.97 1012.25
1024.43 1024.36 1024.61 1024.73 1024.19 1023.91 1023.10 1022.65 1021.99 1021.77 1021.48 1020.66 1020.13 1019.03 1017.71 1017.30 1016.94 1015.87 1014.89 1014.38 1013.88 1013.17 1012.56 1012.11 1011.73 1011.61 1012.06 1012.55 1013.03 1013.00 1012.02 1011.79 1011.92 1012.29 1012.75 1012.97 1013.22 1013.13
1025.70 1025.51 1025.78 1025.69 1025.31 1024.38 1024.18 1023.70 1022.80 1023.00 1022.99 1021.42 1021.36 1020.10 1018.65 1018.02 1017.55 1016.67 1015.80 1014.86 1014.31 1013.77 1013.30 1012.75 1012.50 1012.24 1012.29 1012.62 1013.28 1013.59 1013.39 1012.75 1012.43 1012.72 1013.06 1013.38 1013.73 1013.89
1026.70 1026.54 1026.18 1025.49 1024.86 1024.75 1024.46 1024.17 1024.00 1024.07 1023.36 1022.64 1021.83 1020.52 1019.65 1019.00 1018.11 1017.40 1016.59 1015.91 1015.32 1014.70 1013.88 1013.08 1012.68 1012.69 1012.65 1013.13 1013.83 1013.99 1014.05 1014.22 1013.80 1013.64 1013.69 1013.64 1013.93 1013.92
1026.25 1025.98 1025.79 1025.57 1025.34 1025.25 1025.22 1025.14 1025.04 1024.66 1024.06 1023.38 1022.42 1021.46 1020.71 1019.75 1018.74 1017.90 1017.26 1016.67 1016.15 1015.52 1014.63 1013.95 1013.42 1013.14 1013.29 1013.84 1014.15 1014.42 1014.63 1014.66 1014.55 1014.58 1014.61 1014.46 1014.25 1014.26
Thickness
5641 5639 5640 5640 5639 5636 5633 5629 5625 5621 5624 5630 5626 5634 5632 5628 5628 5627 5625 5626 5623 5621 5617 5615 5612 5608 5604 5601 5596 5592 5589 5585 5583 5580 5578 5576 5573 5570
5632 5633 5633 5633 5634 5630 5629 5625 5622 5620 5619 5629 5630 5634 5629 5624 5621 5619 5621 5622 5623 5619 5615 5613 5611 5608 5604 5601 5599 5595 5591 5587 5584 5581 5579 5577 5575 5571
5623 5626 5626 5624 5624 5628 5625 5619 5617 5613 5609 5619 5626 5632 5626 5621 5619 5618 5616 5616 5617 5619 5613 5609 5606 5605 5603 5600 5597 5595 5591 5588 5586 5583 5580 5578 5576 5573
5606 5609 5607 5613 5619 5617 5619 5617 5612 5613 5603 5608 5614 5625 5621 5616 5618 5617 5618 5617 5616 5615 5613 5611 5607 5603 5600 5598 5596 5595 5594 5589 5588 5585 5582 5578 5576 5574
5582 5581 5583 5587 5590 5593 5599 5603 5601 5604 5599 5601 5606 5610 5614 5613 5613 5612 5614 5615 5612 5614 5608 5606 5604 5600 5597 5596 5594 5593 5595 5593 5590 5586 5583 5581 5577 5574
5554 5565 5559 5559 5565 5567 5577 5577 5582 5587 5592 5598 5605 5607 5606 5608 5607 5610 5609 5608 5610 5608 5604 5603 5601 5596 5595 5594 5592 5591 5590 5590 5590 5588 5585 5581 5577 5575
5530 5531 5529 5535 5548 5540 5552 5550 5564 5571 5576 5580 5588 5596 5599 5600 5601 5606 5607 5606 5605 5604 5601 5597 5592 5591 5591 5588 5587 5586 5588 5587 5587 5586 5585 5581 5577 5571
5505 5501 5522 5526 5531 5534 5535 5537 5531 5545 5548 5551 5560 5562 5564 5560 5563 5570 5594 5600 5599 5596 5590 5593 5586 5586 5584 5579 5578 5580 5581 5581 5581 5582 5580 5580 5575 5571
5488 5490 5503 5506 5503 5511 5510 5517 5516 5519 5520 5526 5528 5528 5531 5529 5537 5545 5559 5562 5583 5578 5579 5587 5575 5576 5571 5568 5568 5569 5570 5571 5573 5573 5573 5575 5573 5569
5463 5466 5467 5469 5481 5485 5489 5495 5494 5493 5498 5499 5505 5506 5506 5509 5511 5520 5528 5535 5548 5556 5554 5565 5554 5559 5560 5559 5557 5558 5559 5561 5561 5564 5564 5566 5566 5564
5444 5451 5460 5461 5465 5465 5472 5472 5469 5470 5475 5478 5481 5486 5490 5490 5496 5506 5505 5515 5529 5534 5533 5535 5538 5535 5538 5540 5542 5544 5545 5546 5549 5551 5553 5554 5553 5553
5431 5434 5435 5435 5437 5440 5444 5447 5449 5450 5451 5455 5459 5461 5466 5472 5477 5477 5477 5485 5496 5512 5503 5507 5515 5517 5521 5515 5518 5522 5523 5526 5528 5531 5535 5538 5537 5533
5413 5415 5416 5416 5418 5420 5423 5426 5428 5428 5430 5431 5437 5438 5440 5445 5452 5456 5460 5463 5464 5474 5479 5478 5495 5496 5496 5497 5493 5494 5500 5502 5505 5507 5508 5511 5513 5516
5400 5401 5399 5400 5405 5406 5409 5409 5409 5414 5413 5417 5418 5419 5419 5423 5428 5434 5437 5438 5442 5446 5450 5455 5467 5473 5474 5474 5479 5477 5478 5477 5479 5485 5482 5485 5486 5486
5384 5382 5381 5381 5385 5385 5387 5387 5385 5386 5388 5391 5395 5396 5395 5398 5406 5414 5420 5425 5430 5429 5433 5438 5441 5450 5455 5454 5454 5455 5456 5456 5459 5459 5462 5457 5463 5457
5347 5349 5349 5347 5348 5348 5353 5356 5357 5359 5356 5359 5367 5373 5379 5385 5386 5390 5396 5402 5406 5412 5415 5421 5425 5429 5429 5432 5432 5432 5433 5435 5436 5436 5440 5436 5437 5436
5313 5315 5316 5317 5318 5320 5320 5322 5328 5329 5330 5333 5335 5343 5349 5357 5365 5368 5373 5378 5385 5389 5391 5398 5402 5400 5404 5409 5411 5411 5408 5410 5412 5414 5414 5413 5412 5414
5291 5285 5282 5283 5284 5284 5288 5290 5296 5297 5301 5308 5310 5314 5322 5330 5338 5345 5349 5351 5353 5361 5367 5371 5376 5378 5382 5385 5385 5387 5388 5386 5385 5389 5388 5390 5388 5389
5262 5261 5254 5251 5251 5252 5256 5261 5260 5262 5266 5270 5278 5287 5295 5300 5308 5314 5322 5327 5330 5335 5343 5348 5354 5356 5355 5353 5356 5359 5362 5365 5365 5364 5363 5364 5366 5366
5229 5226 5223 5215 5216 5216 5217 5218 5220 5221 5226 5232 5237 5247 5257 5264 5269 5279 5289 5293 5303 5310 5316 5321 5327 5330 5327 5322 5320 5327 5336 5341 5342 5340 5338 5339 5339 5340
5175 5171 5166 5163 5164 5168 5168 5172 5178 5179 5181 5191 5195 5204 5216 5225 5233 5242 5250 5259 5268 5280 5287 5294 5297 5301 5303 5303 5299 5300 5305 5312 5317 5317 5316 5314 5313 5313
5132 5129 5127 5125 5124 5123 5123 5125 5129 5131 5137 5144 5152 5162 5173 5184 5196 5204 5213 5222 5233 5242 5255 5265 5271 5275 5278 5279 5275 5275 5278 5279 5285 5289 5292 5294 5293 5293
5110 5106 5102 5099 5097 5094 5093 5093 5095 5095 5102 5108 5115 5123 5131 5144 5156 5167 5176 5188 5198 5208 5221 5232 5241 5246 5250 5250 5251 5253 5253 5257 5260 5262 5264 5267 5270 5271